METEOR 2-17 DEB, 29301

Orbit data source: Space-Track

METEOR 2-17 DEB, 29301 is space debris in LEO originally from a launch on Sat, 30 Jan 1988 UTC launched from the Plesetsk Missile And Space Complex (PKMTR). Debris objects in space refer to the collection of defunct objects orbiting the Earth. Examples of debris include non-operational satellites, rocket bodies, and fragments generated from explosions, collisions, or faulty payload assembly.

Loading next visibility...
Identifier
29301, 1988-005Q
Orbit
LEO
Country
Flag of CISCIS
Related business
Manufacturer
Unknown
Mission
Spacecraft
Bus & Motor
Unknown
Mass
Unknown
Launch date (UTC)
1988-01-30 (38 years ago)
Launch vehicle
Unknown
Launch site
Plesetsk Missile And Space Complex (PKMTR)
Object type
Payload
Rocket body
Debris
Shape & HBR
Unknown shape, 0.1 m
Radar Cross Section
Small (<0.1 m²)

Expand to show TLE details & history
Last TLE update: 2 days ago

TLE from 2 days ago
0 METEOR 2-17 DEB
1 29301U 88005Q   25350.49973560  .00000564  00000-0  36831-3 0  9993
2 29301  82.5324  49.2598 0025793 126.0909 298.4060 14.00505513607300
Epoch: 2025-12-16T11:59Z
TLE epoch observation values (Epoch: 2025-12-16T11:59:37.155Z)
Latitude
63.33728°
Longitude
159.02242°
Altitude
894.05 km
Speed
7.416 km/s
True Right ascension
04h 17m 14s
True Declination
63° 12' 06"
Sunlit
Object was in full shadow at epoch
Visualization orbit readout
Latitude
Unknown
Longitude
Unknown
Altitude
Unknown
Speed
Unknown
Apparent Right ascension
Unknown
Apparent Declination
Unknown
Sunlit
N/A
Visualization observer readout
Local Sidereal Time
20:39:34
Azimuth
Unknown
Elevation
Unknown
Doppler factor
Unknown
Orbital elements
Apogee altitude
907.92 km
Perigee altitude
870.43 km
Semi-major axis
7,267.312 km
Eccentricity
0.00258
Inclination
82.5324°
RAAN
49.2598°
Arg. of periapsis
126.0909°
True anomaly
298.14562°
Mean anomaly
298.406°
Eccentric anomaly
298.27585°
Mean motion
3.50334 °/min
Orbital period
102.76 mins
BSTAR
0.00036831
Loading maneuver chart data...
Computing Atmospheric mass density...
Loading historical data...
Loading historical data...
Loading historical data...
Loading historical data...
Loading historical data...
Loading historical data...
Loading historical data...

Documentation

Showing up to 5 results
|